Temp
-7 -8 -8 -8 -8 -8 -8 -8 -8 -8 -8 -8 -9 -9 -10 -10 -10 -9 -9 -10 -10 -10 -10 -10 -10 -10 -11 -11 -11 -11 -11 -11 -11 -11 -12 -12 -11 -11 -11 -11 -11 -11 -11 -11
-8 -8 -8 -8 -8 -8 -9 -9 -9 -9 -9 -9 -9 -10 -10 -10 -9 -10 -10 -10 -10 -10 -10 -10 -10 -10 -10 -11 -11 -11 -11 -11 -11 -11 -11 -11 -11 -11 -11 -11 -12 -11 -11 -11
-8 -9 -9 -9 -9 -9 -9 -9 -9 -9 -9 -9 -9 -9 -10 -10 -9 -9 -9 -9 -9 -10 -10 -10 -10 -9 -10 -10 -11 -11 -11 -11 -11 -11 -11 -11 -11 -11 -12 -12 -12 -12 -12 -11
-8 -8 -9 -9 -9 -9 -9 -9 -9 -9 -9 -9 -9 -10 -10 -11 -11 -10 -10 -10 -10 -10 -10 -10 -10 -9 -10 -10 -11 -11 -10 -10 -11 -11 -11 -11 -12 -12 -12 -12 -12 -12 -12 -11
-8 -8 -8 -9 -9 -9 -9 -9 -9 -9 -9 -9 -9 -10 -10 -10 -11 -11 -10 -10 -10 -10 -10 -10 -10 -10 -10 -11 -11 -10 -11 -10 -11 -11 -11 -12 -12 -12 -12 -12 -12 -12 -12 -12
-8 -8 -9 -9 -9 -9 -9 -9 -9 -9 -9 -10 -9 -10 -10 -10 -10 -11 -10 -10 -10 -10 -10 -10 -10 -11 -10 -11 -11 -11 -11 -11 -11 -12 -12 -13 -13 -12 -12 -12 -11 -11 -11 -11
-8 -8 -9 -9 -9 -9 -9 -9 -9 -9 -9 -10 -10 -10 -11 -10 -10 -10 -10 -10 -10 -10 -10 -10 -11 -10 -10 -11 -11 -11 -12 -12 -11 -12 -11 -11 -11 -10 -10 -10 -10 -10 -10 -10
-9 -9 -9 -9 -9 -9 -9 -9 -9 -9 -10 -10 -10 -10 -10 -10 -10 -10 -10 -10 -10 -10 -10 -10 -11 -10 -11 -12 -11 -10 -11 -12 -12 -11 -11 -11 -12 -11 -11 -10 -10 -10 -11 -12
-9 -9 -9 -9 -10 -10 -10 -10 -9 -9 -9 -10 -11 -10 -11 -11 -11 -11 -11 -11 -11 -11 -11 -11 -11 -11 -11 -12 -11 -12 -12 -11 -11 -11 -12 -12 -12 -11 -11 -11 -11 -11 -11 -12
-10 -10 -10 -10 -10 -11 -10 -10 -10 -10 -9 -9 -9 -10 -10 -11 -11 -11 -11 -11 -11 -11 -11 -12 -12 -12 -11 -11 -12 -12 -12 -12 -12 -12 -12 -12 -12 -12 -12 -11 -11 -11 -11 -12
-10 -10 -10 -10 -10 -10 -10 -10 -10 -10 -10 -9 -9 -9 -9 -10 -10 -10 -10 -10 -10 -10 -10 -10 -11 -11 -11 -11 -12 -12 -12 -13 -13 -12 -12 -12 -12 -12 -11 -11 -10 -9 -10 -12
-10 -10 -10 -11 -10 -11 -11 -11 -11 -10 -10 -10 -10 -9 -9 -10 -10 -10 -10 -10 -10 -11 -11 -11 -11 -10 -11 -11 -12 -12 -13 -13 -13 -12 -12 -12 -12 -12 -11 -11 -10 -10 -10 -11
-9 -9 -9 -9 -10 -10 -10 -10 -11 -11 -11 -11 -11 -11 -11 -10 -10 -10 -10 -11 -11 -11 -11 -11 -11 -11 -11 -12 -12 -12 -12 -12 -12 -13 -13 -13 -12 -12 -12 -12 -11 -11 -11 -12
-10 -10 -10 -10 -10 -10 -10 -10 -10 -10 -10 -10 -10 -11 -11 -11 -11 -11 -10 -11 -11 -11 -11 -11 -11 -11 -11 -11 -12 -11 -12 -12 -12 -12 -12 -13 -13 -12 -12 -12 -12 -12 -12 -12
-10 -10 -10 -10 -10 -10 -10 -11 -11 -11 -11 -10 -11 -11 -11 -11 -12 -12 -11 -11 -11 -11 -11 -11 -11 -11 -12 -12 -11 -11 -11 -11 -12 -13 -13 -14 -13 -13 -13 -13 -13 -12 -12 -13
-10 -10 -10 -11 -11 -10 -10 -11 -11 -11 -11 -11 -11 -11 -11 -12 -12 -12 -12 -12 -12 -12 -11 -11 -11 -11 -11 -11 -11 -11 -11 -11 -12 -12 -13 -13 -13 -13 -14 -14 -13 -13 -13 -13
-11 -11 -10 -11 -11 -11 -11 -11 -11 -11 -11 -12 -12 -12 -11 -12 -12 -12 -12 -12 -12 -12 -12 -12 -12 -12 -12 -12 -11 -11 -11 -11 -12 -13 -13 -13 -14 -13 -14 -14 -13 -13 -13 -13
-11 -11 -11 -11 -12 -12 -11 -12 -12 -12 -12 -12 -12 -12 -12 -12 -12 -12 -12 -12 -12 -12 -12 -12 -12 -12 -12 -12 -12 -11 -12 -12 -13 -14 -14 -14 -13 -14 -13 -14 -14 -14 -13 -13
-12 -12 -12 -12 -12 -12 -12 -12 -12 -12 -12 -12 -12 -12 -12 -12 -12 -12 -13 -13 -13 -13 -13 -13 -13 -12 -12 -12 -12 -12 -12 -13 -13 -14 -14 -14 -14 -14 -14 -14 -14 -14 -14 -14
-12 -12 -12 -12 -12 -12 -12 -12 -12 -12 -12 -13 -13 -13 -13 -13 -13 -13 -13 -13 -13 -13 -13 -13 -13 -13 -13 -12 -13 -14 -14 -15 -15 -15 -14 -13 -15 -14 -15 -15 -14 -14 -14 -14
-12 -12 -12 -12 -12 -12 -12 -12 -12 -13 -13 -13 -13 -13 -14 -14 -14 -14 -14 -14 -14 -14 -14 -14 -14 -14 -15 -14 -14 -15 -16 -15 -15 -15 -15 -15 -15 -15 -15 -15 -15 -15 -15 -14
-12 -12 -12 -13 -13 -12 -12 -13 -13 -13 -14 -14 -14 -14 -14 -14 -14 -14 -14 -14 -14 -14 -14 -14 -13 -14 -16 -16 -15 -16 -16 -16 -15 -15 -15 -15 -15 -16 -16 -15 -15 -15 -14 -14
-12 -13 -13 -12 -12 -13 -13 -13 -13 -14 -14 -14 -14 -14 -14 -14 -14 -15 -15 -15 -15 -16 -16 -17 -16 -16 -17 -17 -17 -17 -16 -16 -16 -15 -15 -15 -15 -14 -15 -15 -16 -15 -15 -15
-13 -13 -12 -12 -13 -13 -13 -13 -13 -14 -14 -15 -15 -15 -15 -15 -15 -15 -15 -16 -17 -17 -18 -18 -18 -17 -17 -17 -17 -16 -17 -16 -16 -15 -15 -15 -15 -13 -15 -15 -15 -15 -15 -15
-13 -12 -13 -13 -13 -13 -14 -14 -14 -14 -15 -15 -15 -15 -15 -15 -15 -16 -17 -17 -17 -18 -18 -18 -18 -18 -18 -17 -17 -16 -16 -16 -15 -15 -15 -15 -15 -14 -14 -15 -15 -15 -15 -15
-13 -13 -12 -12 -13 -13 -14 -15 -15 -15 -15 -15 -15 -15 -16 -17 -17 -18 -17 -17 -17 -17 -18 -18 -18 -18 -18 -17 -17 -16 -16 -16 -16 -15 -15 -15 -15 -15 -15 -15 -15 -15 -16 -16
Height
5889 5889 5889 5889 5888 5888 5889 5888 5886 5885 5885 5887 5889 5888 5886 5884 5885 5884 5885 5885 5884 5884 5885 5885 5885 5885 5884 5884 5883 5882 5882 5880 5877 5874 5871 5869 5869 5867 5865 5862 5859 5855 5851 5846
5888 5887 5886 5885 5885 5885 5885 5885 5884 5883 5882 5885 5885 5884 5880 5880 5882 5881 5881 5880 5880 5880 5881 5882 5880 5880 5880 5880 5880 5879 5879 5876 5874 5868 5865 5864 5863 5863 5860 5856 5852 5849 5845 5839
5885 5885 5884 5884 5883 5883 5883 5882 5882 5882 5880 5880 5880 5880 5878 5877 5876 5877 5876 5874 5874 5877 5877 5877 5876 5874 5875 5876 5875 5875 5873 5872 5870 5867 5863 5861 5859 5857 5854 5850 5846 5842 5837 5832
5883 5883 5882 5882 5882 5881 5880 5879 5879 5878 5878 5878 5878 5878 5877 5877 5877 5875 5873 5873 5874 5875 5875 5874 5873 5870 5870 5872 5872 5871 5870 5867 5864 5864 5862 5859 5855 5851 5847 5843 5838 5833 5829 5823
5882 5882 5881 5881 5880 5880 5879 5878 5877 5877 5876 5876 5876 5877 5876 5876 5875 5875 5875 5873 5873 5873 5872 5871 5869 5869 5868 5868 5869 5868 5866 5864 5860 5859 5856 5853 5849 5843 5839 5834 5830 5824 5819 5812
5881 5881 5881 5880 5880 5879 5878 5877 5876 5876 5875 5875 5873 5875 5873 5873 5873 5873 5873 5872 5872 5871 5870 5868 5866 5865 5865 5863 5862 5863 5862 5860 5857 5852 5846 5840 5835 5830 5826 5821 5818 5812 5806 5798
5880 5879 5879 5879 5879 5877 5877 5876 5876 5876 5875 5874 5873 5871 5867 5868 5867 5868 5869 5869 5869 5868 5867 5864 5862 5861 5862 5860 5859 5854 5851 5847 5845 5842 5839 5835 5829 5822 5816 5810 5800 5789 5792 5780
5878 5878 5877 5876 5876 5876 5875 5875 5875 5874 5874 5872 5870 5868 5866 5865 5864 5863 5864 5864 5865 5865 5863 5860 5857 5855 5853 5852 5850 5848 5845 5841 5838 5836 5831 5827 5822 5814 5802 5787 5775 5759 5774 5776
5875 5875 5874 5874 5873 5874 5873 5873 5872 5871 5871 5871 5869 5867 5863 5862 5861 5860 5860 5860 5860 5859 5857 5856 5854 5852 5849 5846 5841 5840 5837 5835 5831 5827 5823 5819 5812 5805 5798 5796 5789 5783 5776 5775
5872 5872 5872 5870 5870 5870 5870 5870 5870 5868 5866 5865 5865 5863 5861 5861 5858 5856 5856 5854 5854 5852 5851 5850 5848 5846 5843 5839 5835 5833 5831 5826 5823 5819 5814 5810 5805 5799 5795 5787 5779 5770 5761 5756
5870 5869 5868 5868 5866 5866 5865 5865 5864 5864 5863 5860 5859 5858 5855 5855 5854 5852 5850 5849 5847 5846 5844 5843 5840 5837 5835 5832 5829 5825 5821 5819 5816 5809 5805 5800 5794 5789 5784 5778 5770 5760 5751 5744
5867 5866 5865 5864 5863 5861 5860 5860 5859 5857 5856 5854 5852 5853 5849 5847 5847 5845 5844 5842 5840 5838 5835 5833 5831 5830 5828 5824 5821 5817 5812 5809 5803 5802 5795 5791 5786 5780 5775 5769 5761 5752 5745 5738
5862 5862 5861 5860 5860 5858 5856 5855 5853 5851 5849 5846 5844 5844 5841 5842 5840 5837 5834 5832 5830 5829 5827 5824 5821 5819 5817 5815 5812 5808 5803 5799 5795 5790 5785 5779 5775 5770 5765 5759 5753 5744 5738 5734
5856 5856 5854 5853 5852 5852 5851 5851 5845 5842 5840 5836 5838 5833 5832 5830 5829 5827 5825 5823 5821 5819 5817 5815 5812 5809 5806 5802 5799 5796 5791 5788 5784 5780 5775 5771 5767 5762 5758 5752 5745 5739 5733 5729
5850 5849 5849 5849 5846 5843 5844 5844 5837 5833 5831 5827 5827 5824 5823 5820 5818 5817 5815 5813 5811 5808 5805 5803 5800 5797 5794 5791 5787 5784 5779 5774 5771 5769 5765 5761 5759 5754 5750 5744 5738 5734 5726 5722
5844 5842 5842 5844 5839 5837 5836 5833 5829 5826 5822 5818 5816 5814 5811 5809 5808 5806 5805 5803 5801 5798 5795 5792 5789 5786 5783 5780 5777 5773 5769 5765 5759 5756 5753 5751 5749 5746 5740 5736 5731 5726 5721 5718
5837 5835 5834 5835 5831 5829 5827 5825 5820 5817 5813 5811 5808 5806 5803 5799 5797 5794 5793 5791 5790 5787 5785 5782 5779 5777 5774 5771 5767 5763 5759 5755 5749 5745 5743 5741 5738 5736 5731 5726 5723 5719 5715 5713
5831 5828 5825 5823 5821 5820 5816 5814 5811 5809 5806 5804 5800 5797 5794 5791 5788 5785 5782 5780 5778 5776 5774 5772 5769 5766 5762 5759 5755 5751 5748 5744 5738 5735 5733 5733 5728 5726 5724 5719 5715 5710 5707 5705
5823 5820 5816 5813 5810 5810 5806 5804 5801 5799 5798 5795 5793 5790 5787 5783 5780 5777 5774 5771 5769 5766 5763 5760 5756 5752 5749 5746 5743 5739 5736 5732 5728 5724 5723 5722 5719 5717 5714 5710 5706 5702 5699 5697
5814 5811 5808 5803 5801 5800 5801 5796 5792 5789 5786 5787 5784 5782 5778 5776 5772 5769 5764 5760 5756 5752 5749 5747 5744 5741 5735 5731 5728 5724 5721 5718 5716 5715 5712 5711 5710 5708 5705 5701 5699 5695 5693 5691
5805 5801 5800 5796 5793 5792 5789 5788 5786 5783 5782 5776 5774 5771 5769 5766 5762 5759 5755 5751 5747 5742 5738 5734 5730 5725 5719 5714 5712 5710 5707 5706 5706 5704 5704 5701 5700 5699 5695 5693 5692 5689 5686 5681
5798 5794 5792 5790 5788 5782 5779 5779 5777 5774 5769 5766 5763 5759 5756 5753 5751 5748 5743 5739 5734 5728 5723 5717 5714 5711 5706 5700 5698 5697 5694 5694 5693 5693 5694 5692 5690 5689 5687 5686 5683 5681 5677 5674
5791 5788 5785 5784 5781 5773 5774 5769 5766 5762 5759 5754 5750 5746 5742 5740 5737 5733 5729 5724 5717 5710 5704 5699 5696 5694 5691 5687 5686 5687 5685 5683 5681 5683 5684 5683 5682 5683 5681 5679 5678 5675 5672 5668
5782 5780 5778 5777 5773 5768 5764 5758 5754 5750 5748 5744 5740 5736 5732 5728 5724 5720 5715 5709 5703 5697 5693 5688 5685 5682 5680 5678 5677 5677 5677 5676 5676 5678 5678 5677 5677 5677 5675 5673 5671 5669 5667 5661
5776 5773 5771 5768 5762 5760 5754 5749 5745 5742 5737 5733 5727 5723 5718 5713 5708 5702 5699 5695 5691 5688 5684 5680 5677 5674 5672 5670 5670 5670 5672 5671 5670 5671 5672 5673 5671 5666 5669 5664 5665 5663 5659 5654
5772 5767 5762 5758 5755 5750 5746 5743 5737 5734 5728 5723 5718 5712 5704 5696 5693 5690 5687 5684 5681 5679 5675 5673 5669 5667 5666 5664 5664 5665 5667 5666 5667 5668 5668 5670 5667 5664 5664 5663 5662 5660 5655 5650
Wind_Speed
12 12 11 12 11 10 11 13 17 21 22 19 16 19 20 22 24 21 18 16 15 12 9 9 10 13 14 16 10 11 14 15 22 22 17 16 19 24 26 28 30 32 35 39
11 10 10 10 10 10 9 10 15 21 24 21 19 24 30 29 23 20 21 21 19 13 4 12 16 16 15 12 10 10 17 21 23 30 30 21 21 27 30 32 34 38 39 43
7 7 9 10 9 9 9 10 11 13 15 15 13 18 21 20 17 13 14 9 9 2 3 9 16 22 16 12 13 16 20 22 26 27 31 29 31 32 35 38 40 43 44 48
5 5 7 6 5 6 7 8 8 9 12 12 8 11 13 10 10 13 9 4 5 2 7 17 16 13 8 11 15 23 25 25 25 28 29 32 35 37 36 37 38 40 43 46
6 5 5 5 5 5 6 7 7 9 10 11 9 8 8 11 8 7 6 7 7 9 15 15 19 13 7 11 17 22 25 24 27 27 26 30 34 32 34 35 35 39 40 45
7 8 6 6 7 5 6 6 4 6 6 8 10 7 10 12 13 9 9 10 10 12 14 17 20 16 16 19 14 20 23 24 25 28 28 28 30 33 36 39 41 41 42 47
6 8 8 8 8 8 7 7 6 6 6 9 8 9 13 13 12 10 9 12 15 15 19 18 22 20 22 17 18 19 20 22 24 28 39 37 46 47 46 43 41 41 53 35
7 10 10 10 8 9 11 11 9 6 6 9 11 12 14 16 16 16 11 11 11 11 14 17 21 21 19 20 20 21 23 33 35 38 37 38 44 47 43 45 40 43 27 31
8 9 10 9 10 9 8 10 11 12 11 7 10 12 16 18 21 21 21 17 16 18 21 21 19 21 20 20 28 25 28 32 34 33 35 40 47 54 56 60 47 60 40 42
8 10 11 14 11 12 11 12 12 14 17 18 14 15 17 17 20 21 21 20 21 19 17 20 23 24 25 24 26 28 29 33 34 36 39 44 48 51 43 43 48 50 55 45
11 13 16 17 18 18 19 19 21 22 23 26 26 25 24 21 22 23 23 22 24 23 23 19 19 20 21 22 23 30 34 35 36 41 42 45 47 49 51 49 48 50 55 41
15 15 17 19 20 22 22 24 25 28 30 30 32 29 29 31 29 28 29 28 28 28 28 30 29 29 32 30 31 35 39 42 47 47 49 51 49 51 53 46 44 41 42 30
20 18 20 21 22 25 26 27 29 31 33 35 38 37 36 33 31 33 34 34 34 33 33 33 35 37 37 39 40 42 44 46 47 50 52 51 51 52 47 42 38 41 33 26
20 20 22 24 25 26 27 26 31 33 35 37 36 39 38 38 34 35 37 38 38 37 36 36 37 38 39 41 42 42 45 46 46 46 48 47 46 44 35 32 38 35 30 26
23 24 24 24 27 30 29 28 34 38 39 41 38 38 38 38 37 36 38 38 39 40 40 40 40 41 41 42 43 44 47 51 49 45 43 44 46 45 34 31 37 31 29 24
25 27 28 25 31 33 32 33 37 39 40 42 42 42 40 40 39 39 38 38 39 40 41 43 43 43 43 43 44 46 48 52 56 54 49 42 45 39 32 30 32 26 24 22
28 31 33 31 32 34 36 37 38 37 37 37 36 37 37 39 40 41 40 40 40 40 41 42 44 44 43 44 44 45 48 51 57 58 53 46 45 47 40 24 27 26 27 28
29 33 36 37 38 38 37 33 30 29 31 32 34 35 35 36 37 38 40 41 43 43 43 43 44 44 43 43 47 49 49 53 58 56 53 45 44 41 34 26 28 30 30 30
32 35 39 42 41 37 33 31 31 30 30 30 32 33 35 37 38 40 41 42 42 42 42 44 45 46 47 48 50 51 51 52 54 51 45 39 36 32 25 25 29 29 29 32
38 39 35 35 35 34 30 30 31 33 36 31 33 36 38 38 39 39 41 43 44 46 47 48 49 51 55 55 55 54 52 47 45 43 36 42 31 26 25 25 27 27 28 30
34 34 33 36 37 37 35 33 34 37 39 39 39 38 38 37 37 38 41 43 45 48 51 52 54 55 57 59 57 55 48 42 41 32 32 28 19 21 22 23 23 24 26 30
30 33 34 35 36 40 39 37 38 39 41 42 41 41 42 43 42 42 44 46 49 51 53 55 54 51 43 47 44 46 44 39 37 28 30 27 22 23 23 23 21 23 26 25
30 32 33 35 36 41 40 41 42 44 44 44 44 45 46 45 45 47 49 51 52 52 51 48 49 44 35 36 35 34 33 26 21 22 24 24 19 19 22 21 22 25 24 24
31 34 35 36 37 39 39 43 44 45 44 44 44 44 45 47 50 52 52 50 46 43 41 40 38 35 33 27 24 25 24 13 10 14 16 12 18 20 24 22 20 20 23 29
33 36 38 37 39 37 39 42 44 44 45 46 48 50 54 56 55 53 47 41 36 35 35 30 31 30 27 22 17 17 17 12 9 10 10 15 14 20 21 15 16 21 27 31
31 35 37 38 39 39 40 39 41 41 43 47 52 55 56 54 50 45 40 37 35 32 31 26 24 23 21 19 16 17 13 9 7 4 8 14 16 17 16 10 18 23 29 31
Wind_Direction
287 286 284 283 282 286 288 289 290 289 294 300 299 284 277 276 293 300 295 305 308 306 309 310 323 297 252 264 258 296 311 297 291 291 266 286 295 289 289 287 288 288 290 293
287 288 281 276 274 267 264 269 278 286 290 300 301 289 283 287 291 282 286 282 280 280 306 313 298 284 284 263 285 304 307 296 292 288 305 303 289 289 289 287 286 286 287 288
295 286 281 281 282 284 285 281 284 291 296 301 294 282 285 298 316 320 323 318 261 269 317 300 304 299 265 275 268 283 272 274 287 282 290 297 296 292 288 286 286 284 285 285
304 306 302 301 306 310 301 293 302 317 308 319 316 292 292 314 342 341 342 359 0 304 276 303 324 298 240 232 262 269 281 285 266 284 285 288 288 288 289 289 286 284 283 284
298 300 324 355 318 314 309 297 296 306 307 312 317 319 290 289 313 318 308 282 274 278 294 302 309 294 263 267 272 285 282 287 275 273 281 293 289 289 288 286 285 281 280 281
308 302 314 306 323 318 352 8 1 306 302 306 307 314 293 284 280 292 266 262 255 272 285 291 283 273 257 282 267 291 285 281 280 274 275 286 288 288 284 279 276 276 276 276
333 314 316 310 321 324 326 346 339 328 325 309 313 305 279 292 295 288 276 267 264 270 278 279 283 286 268 275 295 278 259 264 275 273 281 289 295 292 287 284 279 276 269 284
322 315 327 315 318 321 326 327 330 316 314 288 300 301 305 310 309 310 313 305 293 295 293 292 296 300 315 296 306 293 290 306 306 313 313 306 302 296 285 292 302 307 303 302
312 305 311 318 318 319 320 315 311 311 305 296 301 297 292 301 305 306 309 315 306 296 298 293 290 290 293 296 300 300 297 300 299 307 310 304 300 304 320 324 309 318 313 299
277 282 288 294 293 305 304 295 294 297 298 295 278 279 279 281 290 295 301 304 300 296 290 276 276 278 287 289 292 292 293 295 300 304 304 305 308 310 315 322 320 310 314 294
269 277 278 281 289 292 294 296 297 294 290 292 293 292 292 286 286 292 295 296 297 298 293 281 277 263 268 276 286 295 300 304 302 298 300 303 305 307 315 320 319 322 323 278
270 270 267 274 280 283 283 286 288 290 291 291 292 288 290 295 294 292 291 289 289 291 293 296 294 286 287 287 289 291 291 295 300 306 307 310 308 310 313 311 319 321 327 274
274 275 277 274 269 271 276 282 285 286 286 288 286 291 287 288 288 289 289 288 288 288 288 289 291 293 294 294 295 295 297 298 302 303 306 308 311 314 309 314 317 323 321 300
285 285 282 285 288 288 291 296 292 290 288 285 288 285 288 288 284 282 282 283 284 285 284 285 286 286 287 290 292 293 295 296 299 302 305 310 308 308 309 313 320 324 326 300
288 288 288 293 294 295 296 297 291 293 293 291 288 285 287 287 286 282 282 281 281 283 285 285 283 282 284 288 291 294 298 301 301 304 306 305 309 296 301 312 311 321 331 310
290 290 291 293 292 291 295 295 294 291 289 290 292 293 291 289 289 287 285 284 282 281 280 280 282 284 287 292 293 295 298 300 300 301 301 307 306 301 298 304 303 320 324 299
294 294 295 295 290 292 293 292 289 287 289 290 289 288 288 287 288 288 288 287 286 284 283 285 288 289 290 290 293 294 297 297 296 296 299 297 303 301 307 299 299 299 295 296
294 294 294 295 295 295 296 296 291 288 287 287 288 288 288 287 286 284 283 284 285 286 288 289 289 289 290 289 291 292 295 293 292 295 295 296 299 295 297 302 290 286 291 295
292 294 294 294 293 294 299 300 297 293 288 287 286 284 284 285 286 286 286 288 289 290 289 289 288 287 286 287 292 292 289 286 286 287 295 291 292 296 295 289 283 287 293 296
295 294 294 294 294 297 298 293 292 291 292 292 289 290 290 290 289 290 291 292 291 290 291 294 293 292 292 292 291 285 283 284 284 285 297 284 281 290 293 289 292 295 297 299
292 292 294 296 298 300 296 295 296 294 297 298 298 296 293 289 286 284 284 286 288 290 289 286 285 286 286 289 290 287 287 286 289 285 293 296 284 277 275 283 292 300 300 300
291 293 295 296 298 295 297 299 299 299 297 296 296 294 292 292 293 292 293 294 293 291 289 288 288 289 287 279 285 283 280 286 283 271 288 288 267 260 262 273 295 303 301 304
290 292 297 297 300 297 305 303 300 299 299 300 299 298 298 298 298 298 298 297 295 293 293 291 293 296 292 288 286 285 281 282 275 270 278 276 264 273 270 272 285 295 305 309
291 294 298 307 306 306 305 302 301 300 301 300 299 297 297 296 298 301 298 296 299 299 298 296 295 293 295 291 289 280 285 265 260 261 274 289 295 263 273 278 290 300 306 312
297 304 308 309 306 308 303 303 303 304 304 303 302 302 301 301 299 297 300 302 302 305 305 299 296 290 291 289 274 275 268 278 279 273 290 275 265 282 299 289 305 310 311 319
310 309 308 307 307 306 303 302 301 302 301 301 302 300 299 299 300 300 299 297 298 301 305 303 296 288 287 279 259 267 264 288 292 266 294 311 281 295 300 317 306 311 319 325